Location: Miles
(41.4492°N, 81.6087°W)
Time: 21:25:35
(UTC+00:00)

Vanguard 2 Rocket - Pass Details

Date: 22 September 2024
Orbit: 553 x 3298 km, 32.9° (Epoch: 12 October)

Event Time Altitude Azimuth Distance (km) Brightness Sun altitude
Rises 06:01:55 0° 247° (WSW) 3,696 - -47.3°
Reaches altitude 10° 06:04:09 10° 241° (WSW) 2,994 - -47.2°
Maximum altitude 06:11:26 51° 168° (SSE) 1,955 - -46.8°
Exits shadow 06:18:24 26° 108° (ESE) 3,448 9.7 -46.3°
Drops below altitude 10° 06:24:12 10° 98° (E) 5,109 10.8 -45.9°
Sets 06:29:15 0° 95° (E) 6,517 11.5 -45.5°
